FREGAT DEB, 45820

Orbit data source: Space-Track

FREGAT DEB, 45820 is space debris in LEO originally from a launch on Mon, 18 Jul 2011 UTC launched from the Tyuratam Missile And Space Complex (TTMTR). Debris objects in space refer to the collection of defunct objects orbiting the Earth. Examples of debris include non-operational satellites, rocket bodies, and fragments generated from explosions, collisions, or faulty payload assembly.

Loading next visibility...
Identifier
45820, 2011-037BE
Orbit
LEO
Country
Flag of CISCIS
Related business
Manufacturer
Lavochkin
Mission
Spacecraft
Bus & Motor
Unknown
Mass
Unknown
Launch date (UTC)
2011-07-18 (14 years ago)
Launch vehicle
Unknown
Launch site
Tyuratam Missile And Space Complex (TTMTR)
Object type
Payload
Rocket body
Debris
Shape & HBR
Unknown
Radar Cross Section
Small (<0.1 m²)

Expand to show TLE details & history
Last TLE update: 21 hours ago

TLE from 21 hours ago
0 FREGAT DEB
1 45820U 11037BE  25258.18879549  .00032982  00000-0  20194-1 0  9995
2 45820  51.5290  71.3975 1525593 182.8306 176.3024 11.70230226221195
Epoch: 2025-09-15T04:31Z
TLE epoch observation values (Epoch: 2025-09-15T04:31:51.93Z)
Latitude
-0.00002°
Longitude
9.03408°
Altitude
3,065.817 km
Speed
5.983 km/s
True Right ascension
04h 45m 35s
True Declination
0° 00' 00"
Sunlit
Object was in daylight at epoch
Visualization orbit readout
Latitude
Unknown
Longitude
Unknown
Altitude
Unknown
Speed
Unknown
Apparent Right ascension
Unknown
Apparent Declination
Unknown
Sunlit
N/A
Visualization observer readout
Local Sidereal Time
17:55:46
Azimuth
Unknown
Elevation
Unknown
Doppler factor
Unknown
Orbital elements
Apogee altitude
3,067.725 km
Perigee altitude
567.109 km
Semi-major axis
8,195.554 km
Eccentricity
0.15256
Inclination
51.529°
RAAN
71.3975°
Arg. of periapsis
182.8306°
True anomaly
177.24869°
Mean anomaly
176.3024°
Eccentric anomaly
176.79161°
Mean motion
2.92534 °/min
Orbital period
123.06 mins
BSTAR
0.020194
Loading maneuver chart data...
Computing Atmospheric mass density...
Loading historical data...
Loading historical data...
Loading historical data...
Loading historical data...
Loading historical data...
Loading historical data...
Loading historical data...

Documentation

Showing up to 5 results
|